Flag for Canada Weather past 2 weeks in St. Albert, Alberta, Canada

Now
45 °F

Cool.


Feels Like: 38 °F
Forecast: 47 / 60 °F
Wind: 16 mph from Northeast

Location: Edmonton Municipal

Current Time: May 28, 2015 at 7:28:15 AM

Latest Report: May 28, 2015 at 7:00 AM


Visibility: N/A

Pressure: 30.25 "Hg

Humidity: 73%

Dew point: 37 °F

Location of St. AlbertLocation

Historic Weather in St. Albert — Graph

°F

St. Albert temperature yesterday

Maximum temperature yesterday: 77 °F (at 6:00 PM)
Minimum temperature yesterday: 53 °F (at 6:00 AM)
Average temperature yesterday: 65 °F

Past Weeks' High & Low Weather Summary

 TemperatureHumidityPressure
High80 °F (May 23, 4:00 PM)87% (May 16, 8:00 AM)30.51 "Hg (May 16, 8:00 AM)
Low31 °F (May 17, 5:00 AM)11% (May 22, 5:00 PM)29.82 "Hg (May 25, 6:00 PM)
Average60 °F35%30.08 "Hg
* Reported May 13 6:00 AM — May 28 6:00 AM, St. Albert, Weather by CustomWeather, © 2015

Note: Actual official high and low records may vary slightly from our data, if they occured in-between our weather recording intervals... More about our weather records

Advertising

St. Albert weather history for previous 24 hours

 ConditionsComfort  
Time TempWeatherWind HumidityBarometerVisibility
6:00 AM
Thu, May 28
47 °FCool.13 mph75%30.22 "HgN/A
5:00 AM46 °FCool.13 mph84%30.19 "HgN/A
4:00 AM47 °FCool.15 mph72%30.17 "HgN/A
3:00 AM49 °FCool.17 mph79%30.14 "HgN/A
2:00 AM51 °FCool.14 mph78%30.10 "HgN/A
1:00 AM53 °FCool.13 mph71%30.06 "HgN/A
12:00 AM55 °FCool.17 mph64%30.04 "HgN/A
11:00 PM
Wed, May 27
60 °FCool.17 mph67%29.98 "HgN/A
10:00 PM62 °FMild.17 mph57%29.96 "HgN/A
9:00 PM67 °FMild.14 mph40%29.89 "HgN/A
8:00 PM74 °FMild.9 mph28%29.85 "HgN/A
7:00 PM76 °FMild.8 mph25%29.85 "HgN/A
6:00 PM77 °FPleasantly warm.6 mph26%29.85 "HgN/A
5:00 PM76 °FMild.6 mph27%29.87 "HgN/A
4:00 PM74 °FMild.5 mph28%29.88 "HgN/A
3:00 PM74 °FMild.7 mph30%29.90 "HgN/A
2:00 PM75 °FMild.6 mph30%29.92 "HgN/A
1:00 PM73 °FMild.3 mph36%29.93 "HgN/A
12:00 PM68 °FMild.3 mph46%29.96 "HgN/A
11:00 AM64 °FMild.2 mph56%29.97 "HgN/A
10:00 AM62 °FCool.2 mph63%29.98 "HgN/A
9:00 AM60 °FCool.3 mph65%29.98 "HgN/A
8:00 AM58 °FCool.7 mph68%29.99 "HgN/A
7:00 AM56 °FCool.5 mph74%29.99 "HgN/A
Weather by CustomWeather, © 2015

See weather overviewHow to use our weather pages